When you browse on this site, cookies collect data to enhance your experience and personalize the content and advertising you see.
Visit our Privacy Policy to learn more. By continuing to use the site, you agree to this use of cookies and data.

Meteo pe oră la Karak

Astăzi, 16 Iulie, Joi

Timp Temperatura Precipitaţii Vânt Presiune Umiditate
00:00 +23°C° 0 mm 2 m/s 678 mmHg 55%
01:00 +21°C° 0 mm 2 m/s 678 mmHg 57%
02:00 +20°C° 0 mm 2 m/s 677 mmHg 64%
03:00 +20°C° 0 mm 2 m/s 677 mmHg 67%
04:00 +19°C° 0 mm 2 m/s 677 mmHg 71%
05:00 +19°C° 0 mm 2 m/s 677 mmHg 74%
06:00 +21°C° 0 mm 2 m/s 678 mmHg 65%
07:00 +24°C° 0 mm 3 m/s 678 mmHg 57%
08:00 +26°C° 0 mm 3 m/s 679 mmHg 48%
09:00 +28°C° 0 mm 3 m/s 679 mmHg 42%
10:00 +29°C° 0 mm 4 m/s 679 mmHg 37%
11:00 +32°C° 0 mm 4 m/s 679 mmHg 31%
12:00 +33°C° 0 mm 4 m/s 678 mmHg 27%
13:00 +34°C° 0 mm 4 m/s 678 mmHg 23%
14:00 +35°C° 0 mm 5 m/s 678 mmHg 19%
15:00 +35°C° 0 mm 5 m/s 678 mmHg 22%
16:00 +34°C° 0 mm 5 m/s 677 mmHg 26%
17:00 +33°C° 0 mm 5 m/s 677 mmHg 29%
18:00 +30°C° 0 mm 5 m/s 677 mmHg 37%
19:00 +28°C° 0 mm 4 m/s 677 mmHg 45%
20:00 +25°C° 0 mm 3 m/s 676 mmHg 53%
21:00 +24°C° 0 mm 3 m/s 676 mmHg 58%
22:00 +22°C° 0 mm 3 m/s 676 mmHg 62%
23:00 +21°C° 0 mm 2 m/s 676 mmHg 67%

Mâine, 17 Iulie, Vineri

Timp Temperatura Precipitaţii Vânt Presiune Umiditate
00:00 +20°C° 0 mm 2 m/s 676 mmHg 69%
01:00 +20°C° 0 mm 3 m/s 676 mmHg 71%
02:00 +19°C° 0 mm 3 m/s 676 mmHg 72%
03:00 +18°C° 0 mm 3 m/s 676 mmHg 75%
04:00 +18°C° 0 mm 2 m/s 675 mmHg 78%
05:00 +17°C° 0 mm 2 m/s 675 mmHg 81%
06:00 +19°C° 0 mm 2 m/s 676 mmHg 69%
07:00 +21°C° 0 mm 3 m/s 676 mmHg 57%
08:00 +24°C° 0 mm 3 m/s 677 mmHg 45%
09:00 +26°C° 0 mm 3 m/s 677 mmHg 39%
10:00 +28°C° 0 mm 3 m/s 677 mmHg 33%
11:00 +30°C° 0 mm 4 m/s 678 mmHg 27%
12:00 +32°C° 0 mm 4 m/s 677 mmHg 25%
13:00 +33°C° 0 mm 4 m/s 677 mmHg 23%
14:00 +34°C° 0 mm 4 m/s 677 mmHg 22%
15:00 +33°C° 0 mm 5 m/s 676 mmHg 25%
16:00 +33°C° 0 mm 6 m/s 676 mmHg 28%
17:00 +32°C° 0 mm 6 m/s 676 mmHg 31%
18:00 +29°C° 0 mm 5 m/s 676 mmHg 37%
19:00 +26°C° 0 mm 4 m/s 676 mmHg 43%
20:00 +24°C° 0 mm 3 m/s 676 mmHg 49%
21:00 +22°C° 0 mm 3 m/s 676 mmHg 51%
22:00 +21°C° 0 mm 3 m/s 676 mmHg 54%
23:00 +20°C° 0 mm 2 m/s 676 mmHg 56%

Poimâine, 18 Iulie, Sâmbătă

Timp Temperatura Precipitaţii Vânt Presiune Umiditate
00:00 +20°C° 0 mm 2 m/s 676 mmHg 57%
01:00 +19°C° 0 mm 2 m/s 676 mmHg 58%
02:00 +19°C° 0 mm 2 m/s 676 mmHg 59%
03:00 +18°C° 0 mm 2 m/s 676 mmHg 60%
04:00 +18°C° 0 mm 2 m/s 675 mmHg 62%
05:00 +17°C° 0 mm 2 m/s 675 mmHg 63%
06:00 +21°C° 0 mm 1 m/s 676 mmHg 54%
07:00 +23°C° 0 mm 1 m/s 677 mmHg 44%
08:00 +25°C° 0 mm 1 m/s 677 mmHg 35%
09:00 +27°C° 0 mm 2 m/s 677 mmHg 32%
10:00 +29°C° 0 mm 3 m/s 677 mmHg 29%
11:00 +31°C° 0 mm 3 m/s 678 mmHg 27%
12:00 +33°C° 0 mm 4 m/s 677 mmHg 23%
13:00 +34°C° 0 mm 4 m/s 677 mmHg 19%
14:00 +35°C° 0 mm 4 m/s 677 mmHg 16%
15:00 +35°C° 0 mm 5 m/s 677 mmHg 18%
16:00 +34°C° 0 mm 5 m/s 677 mmHg 20%
17:00 +33°C° 0 mm 5 m/s 677 mmHg 23%
18:00 +30°C° 0 mm 4 m/s 676 mmHg 32%
19:00 +27°C° 0 mm 3 m/s 676 mmHg 41%
20:00 +25°C° 0 mm 2 m/s 676 mmHg 50%
21:00 +24°C° 0 mm 2 m/s 676 mmHg 52%
22:00 +24°C° 0 mm 2 m/s 676 mmHg 53%
23:00 +23°C° 0 mm 2 m/s 677 mmHg 55%

19 Iulie, Duminică

Timp Temperatura Precipitaţii Vânt Presiune Umiditate
00:00 +21°C° 0 mm 2 m/s 676 mmHg 55%
01:00 +21°C° 0 mm 2 m/s 676 mmHg 56%
02:00 +21°C° 0 mm 1 m/s 676 mmHg 56%
03:00 +20°C° 0 mm 1 m/s 676 mmHg 56%
04:00 +20°C° 0 mm 1 m/s 676 mmHg 57%
05:00 +20°C° 0 mm 1 m/s 676 mmHg 57%
06:00 +23°C° 0 mm 1 m/s 677 mmHg 47%
07:00 +26°C° 0 mm 1 m/s 678 mmHg 38%
08:00 +28°C° 0 mm 1 m/s 679 mmHg 28%
09:00 +31°C° 0 mm 1 m/s 679 mmHg 24%
10:00 +34°C° 0 mm 2 m/s 679 mmHg 21%
11:00 +36°C° 0 mm 2 m/s 679 mmHg 17%
12:00 +37°C° 0 mm 2 m/s 679 mmHg 16%
13:00 +38°C° 0 mm 3 m/s 679 mmHg 15%
14:00 +40°C° 0 mm 3 m/s 679 mmHg 14%
15:00 +39°C° 0 mm 3 m/s 678 mmHg 14%
16:00 +38°C° 0 mm 4 m/s 678 mmHg 15%
17:00 +38°C° 0 mm 4 m/s 677 mmHg 15%
18:00 +35°C° 0 mm 4 m/s 677 mmHg 21%
19:00 +31°C° 0 mm 3 m/s 677 mmHg 27%
20:00 +28°C° 0 mm 3 m/s 677 mmHg 33%
21:00 +27°C° 0 mm 2 m/s 677 mmHg 38%
22:00 +26°C° 0 mm 2 m/s 677 mmHg 43%
23:00 +25°C° 0 mm 2 m/s 677 mmHg 49%

20 Iulie, Luni

Timp Temperatura Precipitaţii Vânt Presiune Umiditate
00:00 +25°C° 0 mm 2 m/s 677 mmHg 51%
01:00 +24°C° 0 mm 2 m/s 677 mmHg 53%
02:00 +23°C° 0 mm 2 m/s 677 mmHg 56%
03:00 +23°C° 0 mm 2 m/s 677 mmHg 57%
04:00 +21°C° 0 mm 2 m/s 677 mmHg 59%
05:00 +22°C° 0 mm 1 m/s 677 mmHg 60%
06:00 +24°C° 0 mm 2 m/s 678 mmHg 53%
07:00 +26°C° 0 mm 2 m/s 678 mmHg 46%
08:00 +29°C° 0 mm 2 m/s 679 mmHg 38%
09:00 +30°C° 0 mm 3 m/s 679 mmHg 35%
10:00 +33°C° 0 mm 3 m/s 679 mmHg 32%
11:00 +34°C° 0 mm 4 m/s 679 mmHg 28%
12:00 +36°C° 0 mm 4 m/s 679 mmHg 24%
13:00 +37°C° 0 mm 4 m/s 679 mmHg 20%
14:00 +38°C° 0 mm 4 m/s 679 mmHg 16%
15:00 +38°C° 0 mm 4 m/s 679 mmHg 18%
16:00 +37°C° 0 mm 5 m/s 679 mmHg 20%
17:00 +37°C° 0 mm 5 m/s 678 mmHg 22%
18:00 +34°C° 0 mm 4 m/s 678 mmHg 27%
19:00 +30°C° 0 mm 3 m/s 678 mmHg 33%
20:00 +28°C° 0 mm 2 m/s 678 mmHg 39%
21:00 +27°C° 0 mm 2 m/s 678 mmHg 40%
22:00 +26°C° 0 mm 3 m/s 678 mmHg 40%
23:00 +25°C° 0 mm 3 m/s 678 mmHg 41%

21 Iulie, Marţi

Timp Temperatura Precipitaţii Vânt Presiune Umiditate
00:00 +24°C° 0 mm 3 m/s 677 mmHg 44%
01:00 +22°C° 0 mm 3 m/s 677 mmHg 47%
02:00 +21°C° 0 mm 3 m/s 677 mmHg 49%
03:00 +20°C° 0 mm 2 m/s 677 mmHg 52%
04:00 +21°C° 0 mm 1 m/s 677 mmHg 56%
05:00 +20°C° 0 mm 1 m/s 677 mmHg 59%
06:00 +21°C° 0 mm 2 m/s 677 mmHg 52%
07:00 +25°C° 0 mm 3 m/s 678 mmHg 45%
08:00 +27°C° 0 mm 3 m/s 678 mmHg 37%
09:00 +29°C° 0 mm 3 m/s 678 mmHg 33%
10:00 +32°C° 0 mm 4 m/s 678 mmHg 29%
11:00 +34°C° 0 mm 4 m/s 678 mmHg 24%
12:00 +35°C° 0 mm 4 m/s 678 mmHg 22%
13:00 +36°C° 0 mm 4 m/s 678 mmHg 19%
14:00 +37°C° 0 mm 4 m/s 678 mmHg 17%
15:00 +37°C° 0 mm 4 m/s 677 mmHg 19%
16:00 +36°C° 0 mm 5 m/s 677 mmHg 21%
17:00 +35°C° 0 mm 5 m/s 677 mmHg 24%
18:00 +33°C° 0 mm 5 m/s 677 mmHg 30%
19:00 +29°C° 0 mm 4 m/s 676 mmHg 37%
20:00 +26°C° 0 mm 4 m/s 676 mmHg 43%
21:00 +25°C° 0 mm 3 m/s 676 mmHg 48%
22:00 +24°C° 0 mm 3 m/s 676 mmHg 53%
23:00 +22°C° 0 mm 3 m/s 676 mmHg 57%
Arată mai mult